Location: Borgo
(42.3939°N, 9.2791°E)
Time: 21:24:24
(UTC+00:00)

Okean-O - Pass Details

Date: 24 January 2021
Orbit: 638 x 641 km, 98.2° (Epoch: 02 March)

Event Time Altitude Azimuth Distance (km) Brightness Sun altitude
Rises 18:02:01 0° 165° (SSE) 2,932 6.0 -17.6°
Reaches altitude 10° 18:04:13 10° 165° (SSE) 2,027 5.1 -17.9°
Maximum altitude 18:08:38 89° 77° (ENE) 647 2.5 -18.8°
Drops below altitude 10° 18:13:06 10° 347° (NNW) 2,043 5.3 -19.6°
Sets 18:15:19 0° 348° (NNW) 2,957 6.1 -20.0°
